Regional Weather Roundup
Issued by NWS Charleston, SC

Home | Current Version | Previous Version | Text Only | Print | Product List | Glossary On
Versions: 1 2 3 4 5 6 7 8 9 10 11 12 13 14 15 16 17 18 19 20 21 22 23 24 25 26 27 28 29 30 31 32 33 34 35 36 37 38 39 40 41 42 43 44 45 46 47 48 49 50
000
ASUS42 KCHS 020525
RWRCHS

REGIONAL WEATHER ROUNDUP
NATIONAL WEATHER SERVICE CHARLESTON SC
100 AM EDT THU OCT 02 2014

NOTE: "FAIR" INDICATES FEW OR NO CLOUDS BELOW 12,000 FEET WITH NO
SIGNIFICANT WEATHER AND/OR OBSTRUCTIONS TO VISIBILITY.

NOT ALL STATIONS ARE QUALITY CONTROLLED BY THE NATIONAL
WEATHER SERVICE. USE DATA WITH CAUTION...ESPECIALLY
DEWPOINT OBSERVATIONS.

SCZ027-030-031-034>040-042>050-020600-
...SOUTH CAROLINA...

CITY           SKY/WX    TMP DP  RH WIND       PRES   REMARKS
N CHARLESTON   PTCLDY    67  64  90 CALM      30.03F
WATERFRONT PRK   N/A     72 N/A N/A CALM        N/A
FORT JOHNSON   NOT AVBL
MOUNT PLEASANT LGT RAIN  64  64 100 CALM      30.04S
JOHNS ISLAND   CLEAR     64  64 100 CALM      30.04R
PINOPOLIS        N/A     72  64  78 MISG      29.94F
MONCKS CORNER  FAIR      66  66 100 CALM      30.04R FOG
SUMMERVILLE    FAIR      63  63 100 CALM      30.05S
BEAUFORT MCAS  PTCLDY    68  65  90 CALM      30.03S
BEAUFORT ARPT  FAIR      68  68 100 CALM      30.03S FOG
HILTON HEAD IS PTCLDY    68  66  94 CALM      30.04S
GEORGETOWN     NOT AVBL
WALTERBORO     CLEAR     64 N/A N/A CALM      30.05R
ORANGEBURG     CLEAR     66  64  93 CALM      30.05R FOG
BARNWELL       FAIR      66  64  94 CALM      30.05S
AIKEN          FAIR      64  64 100 S5        30.09R
MANNING        FAIR      64 N/A N/A CALM      30.04S
KINGSTREE      NOT AVBL
COLUMBIA       PTCLDY    68  63  84 W3        30.03S
SUMTER         CLEAR     65  63  90 SE1       30.03S
FLORENCE       CLEAR     67  65  93 CALM      30.04S
MYRTLE BEACH   CLEAR     66  63  88 CALM      30.04S
N MYRTLE BEACH PTCLDY    66  65  96 CALM      30.03S FOG

$$

GAZ063-065-086>088-099>101-113>116-118-119-134-136>141-150-020600-
...GEORGIA...

CITY           SKY/WX    TMP DP  RH WIND       PRES   REMARKS
SAVANNAH ARPT  PTCLDY    68  65  90 CALM      30.04R
HUNTER AAF     MOCLDY    66  65  96 CALM      30.02R
FORT STEWART   PTCLDY    64  62  94 CALM      30.02S
STATESBORO     NOT AVBL
SYLVANIA       CLEAR     68  67  98 CALM      30.05S FOG
CLAXTON        FAIR      64  64 100 CALM      30.04S
THOMSON        PTCLDY    65  65 100 CALM      30.08S
AUGUSTA-BUSH   FOG       61  60  97 CALM      30.04R VSB 1/4
AUGUSTA-DANIEL CLEAR     71  63  75 S5        30.05S
SWAINSBORO     FAIR      70  70 100 CALM      30.05S
VIDALIA        CLEAR     68  66  94 CALM      30.04S
ALMA           CLEAR     66  65  96 CALM      30.03S FOG
WAYCROSS       CLOUDY    71  71  99 CALM      30.03S
JESUP          FAIR      66  64  94 CALM      30.03S
BRUNSWICK        N/A     68  66  94 CALM      30.03S VSB 1/4
SAINT SIMONS   CLEAR     72  68  87 CALM      30.02R

$$

SCZ027-028-034-036>038-045-046-048>050-GAZ119-141-020600-
...LAKE AND SUPPLEMENTAL COASTAL OBSERVATIONS...

STATION/POSITION TIME  TEMP    WIND        PRES    WAVE   SWELL
                       AIR SEA DIR/SP/G            HT/PER HT/PER/DIR
                 (UTC) (F)     (DEG/KT/KT) (MB)    (FT/S) (FT/S/D)
UPR LAKE MARION  NOT AVBL
WINYAH BAY       0500   67     310/  1     1017.0S
LAKE MURRAY      0400   74     190/  7/  8 1016.6S
ACE BASIN NERRS  0500   66        CALM     1017.0S
FORT PULASKI     0500   74     100/  3/  4 1017.2R
SAPELO ISLAND    NOT AVBL

$$

ANZ835-935-AMZ111-154-330-350-352-354-374-450-454-472-020600-
...C-MAN AND BUOY OBSERVATIONS...

STATION/POSITION TIME  TEMP    WIND        PRES    WAVE   SWELL
                       AIR SEA DIR/SP/G            HT/PER HT/PER/DIR
                 (UTC) (F)     (DEG/KT/KT) (MB)    (FT/S) (FT/S/D)
FOLLY BEACH CMAN 0500   75     110/  5/  5 1017.4F
BUOY 41004       0500   78 81   80/ 10/ 12 1016.3F   2/ 7   2/ 7
BUOY 41008       0500   78 79   90/ 10/ 10 1016.2F   2/ 7   2/ 60/ 7
5E ST. MARYS GA  0500      79                N/A     3/ 4
FRYING PAN BUOY  NOT AVBL
BUOY 41025       0500   70      10/ 14/ 16 1016.5R   3/ 7   2/ 70/ 7
CAPE LOOKOUT NC  0500   71      30/  8/ 11 1016.8R
BUOY 41002       0356   79 80   30/ 10/ 12 1015.5R   3/ 5   2/ 40/ 6
BUOY 41010       0500   80 85   40/ 12/ 16 1014.8S   3/ 8   2/ 10/ 8
BUOY 41012       NOT AVBL
ST AUGUSTINE FL  0500   79      80/  8/  9 1016.3F
CAPERS NEARSHORE 0400   75     110/  6/  8   N/A
FRIPP NEARSHORE  NOT AVBL


$$


USA.gov is the U.S. government's official web portal to all federal, state and local government web resources and services.